| time (UTC) | temp F | wind direction | speed MPH | gust MPH | rain 1hr in | rain 24hr in | rain mn in | humidity % | barometer mb |
| 20260507105352 | 54 | 48 | 6.0 | 7.0 | 0.00 | 0.00 | 0.00 | 90 | 1097.5 |
| 20260507104848 | 54 | 59 | 6.0 | 7.0 | 0.00 | 0.00 | 0.00 | 90 | 1097.4 |
| 20260507104345 | 54 | 35 | 5.0 | 7.0 | 0.00 | 0.00 | 0.00 | 90 | 1097.3 |
| 20260507103841 | 54 | 35 | 6.0 | 8.0 | 0.00 | 0.00 | 0.00 | 90 | 1097.6 |
| 20260507103338 | 54 | 23 | 5.0 | 7.0 | 0.00 | 0.00 | 0.00 | 89 | 1097.2 |
| 20260507102834 | 54 | 11 | 5.0 | 8.0 | 0.00 | 0.00 | 0.00 | 89 | 1097.2 |
| 20260507102331 | 54 | 39 | 8.0 | 11.0 | 0.00 | 0.00 | 0.00 | 89 | 1097.0 |
| 20260507101827 | 54 | 52 | 4.0 | 6.0 | 0.00 | 0.00 | 0.00 | 89 | 1097.0 |
| 20260507101327 | 54 | 47 | 5.0 | 6.0 | 0.00 | 0.00 | 0.00 | 89 | 1097.2 |
| 20260507100825 | 55 | 53 | 10.0 | 11.0 | 0.00 | 0.00 | 0.00 | 89 | 1097.0 |
| 20260507100323 | 55 | 35 | 4.0 | 6.0 | 0.00 | 0.00 | 0.00 | 89 | 1097.0 |
| 20260507095821 | 55 | 61 | 7.0 | 8.0 | 0.00 | 0.00 | 0.00 | 89 | 1097.4 |
| 20260507095317 | 55 | 43 | 8.0 | 10.0 | 0.00 | 0.00 | 0.00 | 89 | 1097.2 |
| 20260507094814 | 55 | 50 | 6.0 | 10.0 | 0.00 | 0.00 | 0.00 | 89 | 1096.9 |
| 20260507094311 | 55 | 62 | 6.0 | 8.0 | 0.00 | 0.00 | 0.00 | 90 | 1097.3 |
| 20260507093808 | 56 | 7 | 4.0 | 4.0 | 0.00 | 0.00 | 0.00 | 91 | 1097.0 |
| 20260507093306 | 56 | 42 | 4.0 | 4.0 | 0.00 | 0.00 | 0.00 | 91 | 1097.0 |
| 20260507092804 | 56 | 37 | 4.0 | 6.0 | 0.00 | 0.00 | 0.00 | 92 | 1097.2 |
| 20260507092300 | 56 | 29 | 4.0 | 4.0 | 0.00 | 0.00 | 0.00 | 92 | 1096.8 |
| 20260507091756 | 56 | 58 | 4.0 | 4.0 | 0.00 | 0.00 | 0.00 | 92 | 1097.4 |
| 20260507091253 | 56 | 41 | 3.0 | 3.0 | 0.00 | 0.00 | 0.00 | 93 | 1097.3 |
| 20260507090753 | 56 | 42 | 2.0 | 2.0 | 0.00 | 0.00 | 0.00 | 94 | 1097.0 |
| 20260507090250 | 56 | 45 | 2.0 | 2.0 | 0.00 | 0.00 | 0.00 | 94 | 1097.3 |
| 20260507085747 | 56 | 52 | 2.0 | 2.0 | 0.00 | 0.00 | 0.00 | 94 | 1096.9 |
| 20260507085244 | 56 | 52 | 2.0 | 3.0 | 0.00 | 0.00 | 0.00 | 94 | 1096.8 |
| 20260507084741 | 56 | 69 | 1.0 | 2.0 | 0.00 | 0.00 | 0.00 | 94 | 1096.8 |
| 20260507084237 | 56 | 49 | 3.0 | 3.0 | 0.00 | 0.00 | 0.00 | 95 | 1096.7 |
| 20260507083735 | 56 | 39 | 3.0 | 4.0 | 0.00 | 0.00 | 0.00 | 95 | 1096.8 |
| 20260507083231 | 56 | 50 | 5.0 | 6.0 | 0.00 | 0.00 | 0.00 | 96 | 1096.9 |
| 20260507082728 | 56 | 57 | 1.0 | 2.0 | 0.00 | 0.00 | 0.00 | 96 | 1096.8 |
| 20260507082223 | 56 | 64 | 2.0 | 3.0 | 0.00 | 0.00 | 0.00 | 96 | 1097.0 |
| 20260507081721 | 56 | 55 | 0.0 | 1.0 | 0.00 | 0.00 | 0.00 | 96 | 1096.9 |
| 20260507081217 | 56 | 47 | 2.0 | 2.0 | 0.00 | 0.00 | 0.00 | 97 | 1097.0 |
| 20260507080713 | 56 | 39 | 2.0 | 2.0 | 0.00 | 0.00 | 0.00 | 97 | 1096.2 |
| 20260507080210 | 55 | 38 | 2.0 | 2.0 | 0.00 | 0.00 | 0.00 | 97 | 1096.5 |
| 20260507075705 | 55 | 35 | 0.0 | 0.0 | 0.00 | 0.00 | 0.00 | 97 | 1096.7 |
| 20260507075201 | 55 | 35 | 2.0 | 2.0 | 0.00 | 0.00 | 0.00 | 97 | 1096.6 |
| 20260507074658 | 55 | 33 | 1.0 | 1.0 | 0.00 | 0.00 | 0.00 | 97 | 1096.6 |
| 20260507074156 | 55 | 32 | 1.0 | 1.0 | 0.00 | 0.00 | 0.00 | 97 | 1096.7 |
| 20260507073653 | 55 | 32 | 1.0 | 1.0 | 0.00 | 0.00 | 0.00 | 97 | 1096.9 |
| 20260507073149 | 54 | 32 | 0.0 | 0.0 | 0.00 | 0.00 | 0.00 | 97 | 1096.6 |
| 20260507072647 | 54 | 32 | 0.0 | 0.0 | 0.00 | 0.00 | 0.00 | 97 | 1096.5 |
| 20260507072144 | 54 | 32 | 0.0 | 0.0 | 0.00 | 0.00 | 0.00 | 97 | 1096.4 |
| 20260507071642 | 54 | 32 | 0.0 | 0.0 | 0.00 | 0.00 | 0.00 | 96 | 1096.3 |
| 20260507071137 | 55 | 32 | 0.0 | 0.0 | 0.00 | 0.00 | 0.00 | 96 | 1096.3 |
| 20260507070635 | 55 | 33 | 1.0 | 2.0 | 0.00 | 0.00 | 0.00 | 96 | 1096.2 |
| 20260507070132 | 55 | 32 | 1.0 | 1.0 | 0.00 | 0.00 | 0.00 | 96 | 1096.0 |
| 20260507065628 | 55 | 34 | 1.0 | 1.0 | 0.00 | 0.00 | 0.00 | 96 | 1095.8 |
| 20260507065125 | 55 | 34 | 2.0 | 4.0 | 0.00 | 0.00 | 0.00 | 96 | 1095.7 |
| 20260507064623 | 55 | 49 | 1.0 | 2.0 | 0.00 | 0.00 | 0.00 | 96 | 1095.9 |
| 20260507064121 | 55 | 51 | 2.0 | 2.0 | 0.00 | 0.00 | 0.00 | 96 | 1095.6 |
| 20260507063618 | 55 | 64 | 2.0 | 2.0 | 0.00 | 0.00 | 0.00 | 96 | 1095.7 |
| 20260507063115 | 55 | 78 | 0.0 | 0.0 | 0.00 | 0.00 | 0.00 | 95 | 1095.4 |
| 20260507062611 | 55 | 78 | 0.0 | 0.0 | 0.00 | 0.00 | 0.00 | 95 | 1095.3 |
| 20260507062110 | 56 | 76 | 0.0 | 0.0 | 0.00 | 0.00 | 0.00 | 95 | 1095.2 |
| 20260507061607 | 56 | 77 | 0.0 | 1.0 | 0.00 | 0.00 | 0.00 | 95 | 1095.6 |
| 20260507061105 | 56 | 77 | 0.0 | 0.0 | 0.00 | 0.00 | 0.00 | 95 | 1095.3 |
| 20260507060603 | 56 | 84 | 1.0 | 2.0 | 0.00 | 0.00 | 0.00 | 95 | 1095.3 |
| 20260507060059 | 56 | 100 | 0.0 | 1.0 | 0.00 | 0.00 | 0.00 | 95 | 1095.2 |
| 20260507055554 | 56 | 135 | 2.0 | 2.0 | 0.00 | 0.00 | 0.00 | 95 | 1095.3 |
| 20260507055050 | 56 | 141 | 1.0 | 1.0 | 0.00 | 0.00 | 0.00 | 95 | 1095.4 |
| 20260507054547 | 56 | 145 | 1.0 | 1.0 | 0.00 | 0.00 | 0.00 | 95 | 1095.1 |
| 20260507054044 | 56 | 146 | 0.0 | 0.0 | 0.00 | 0.00 | 0.00 | 94 | 1095.3 |
| 20260507053542 | 57 | 152 | 1.0 | 1.0 | 0.00 | 0.00 | 0.00 | 94 | 1095.4 |
| 20260507053040 | 56 | 154 | 0.0 | 0.0 | 0.00 | 0.00 | 0.00 | 94 | 1095.3 |
| 20260507052537 | 56 | 154 | 0.0 | 0.0 | 0.00 | 0.00 | 0.00 | 94 | 1095.3 |
| 20260507052034 | 56 | 155 | 0.0 | 1.0 | 0.00 | 0.00 | 0.00 | 94 | 1095.4 |
| 20260507051532 | 56 | 156 | 0.0 | 0.0 | 0.00 | 0.00 | 0.00 | 94 | 1095.2 |
| 20260507051028 | 57 | 156 | 1.0 | 1.0 | 0.00 | 0.00 | 0.00 | 94 | 1095.7 |
| 20260507050525 | 57 | 156 | 0.0 | 0.0 | 0.00 | 0.00 | 0.00 | 93 | 1095.6 |
| 20260507050021 | 57 | 156 | 0.0 | 1.0 | 0.00 | 0.06 | 0.06 | 93 | 1095.3 |
| 20260507045518 | 57 | 156 | 0.0 | 0.0 | 0.00 | 0.06 | 0.06 | 93 | 1095.1 |
| 20260507045015 | 57 | 156 | 1.0 | 1.0 | 0.00 | 0.06 | 0.06 | 93 | 1094.9 |
| 20260507044512 | 57 | 156 | 0.0 | 1.0 | 0.00 | 0.06 | 0.06 | 92 | 1094.9 |
| 20260507044009 | 57 | 156 | 0.0 | 0.0 | 0.00 | 0.06 | 0.06 | 92 | 1094.8 |
| 20260507043505 | 58 | 156 | 1.0 | 1.0 | 0.00 | 0.06 | 0.06 | 92 | 1094.9 |
| 20260507043001 | 58 | 156 | 0.0 | 0.0 | 0.00 | 0.06 | 0.06 | 91 | 1094.7 |
| 20260507042458 | 58 | 156 | 0.0 | 1.0 | 0.00 | 0.06 | 0.06 | 91 | 1094.8 |
| 20260507041954 | 58 | 156 | 0.0 | 1.0 | 0.00 | 0.06 | 0.06 | 91 | 1094.8 |
| 20260507041451 | 58 | 157 | 0.0 | 1.0 | 0.00 | 0.06 | 0.06 | 90 | 1094.7 |
| 20260507040948 | 58 | 155 | 1.0 | 1.0 | 0.00 | 0.06 | 0.06 | 90 | 1094.7 |
| 20260507040443 | 58 | 154 | 1.0 | 1.0 | 0.00 | 0.06 | 0.06 | 90 | 1094.4 |
| 20260507035939 | 59 | 155 | 0.0 | 0.0 | 0.00 | 0.06 | 0.06 | 90 | 1094.5 |
| 20260507035436 | 59 | 154 | 1.0 | 1.0 | 0.00 | 0.06 | 0.06 | 89 | 1094.4 |
| 20260507034933 | 59 | 154 | 1.0 | 1.0 | 0.00 | 0.06 | 0.06 | 89 | 1094.1 |
| 20260507034430 | 59 | 154 | 2.0 | 2.0 | 0.00 | 0.06 | 0.06 | 89 | 1094.0 |
| 20260507033928 | 59 | 154 | 0.0 | 0.0 | 0.00 | 0.06 | 0.06 | 88 | 1094.3 |
| 20260507033425 | 59 | 155 | 2.0 | 2.0 | 0.00 | 0.06 | 0.06 | 88 | 1094.3 |
| 20260507032922 | 59 | 155 | 1.0 | 1.0 | 0.00 | 0.06 | 0.06 | 88 | 1094.0 |
| 20260507032419 | 59 | 155 | 0.0 | 0.0 | 0.00 | 0.06 | 0.06 | 88 | 1093.9 |
| 20260507031915 | 59 | 154 | 0.0 | 0.0 | 0.00 | 0.06 | 0.06 | 87 | 1094.2 |
| 20260507031412 | 59 | 154 | 0.0 | 1.0 | 0.00 | 0.06 | 0.06 | 87 | 1093.9 |
| 20260507030909 | 60 | 154 | 0.0 | 1.0 | 0.00 | 0.06 | 0.06 | 86 | 1094.0 |
| 20260507030406 | 60 | 154 | 0.0 | 0.0 | 0.00 | 0.06 | 0.06 | 86 | 1093.7 |
| 20260507025903 | 60 | 155 | 0.0 | 1.0 | 0.00 | 0.06 | 0.06 | 86 | 1093.9 |
| 20260507025400 | 60 | 154 | 0.0 | 0.0 | 0.00 | 0.06 | 0.06 | 86 | 1093.9 |
| 20260507024858 | 60 | 154 | 1.0 | 1.0 | 0.00 | 0.06 | 0.06 | 86 | 1093.6 |
| 20260507024355 | 60 | 154 | 0.0 | 0.0 | 0.00 | 0.06 | 0.06 | 86 | 1093.5 |
| 20260507023851 | 60 | 154 | 0.0 | 0.0 | 0.00 | 0.06 | 0.06 | 85 | 1093.4 |
| 20260507023348 | 61 | 154 | 0.0 | 0.0 | 0.00 | 0.06 | 0.06 | 84 | 1093.3 |
| 20260507022845 | 61 | 154 | 0.0 | 1.0 | 0.00 | 0.06 | 0.06 | 83 | 1093.4 |
| 20260507022341 | 61 | 153 | 1.0 | 2.0 | 0.00 | 0.06 | 0.06 | 83 | 1093.3 |
| 20260507021837 | 62 | 151 | 2.0 | 2.0 | 0.00 | 0.06 | 0.06 | 82 | 1093.3 |
| 20260507021333 | 62 | 144 | 1.0 | 1.0 | 0.00 | 0.06 | 0.06 | 81 | 1093.1 |
| 20260507020831 | 63 | 116 | 1.0 | 2.0 | 0.00 | 0.06 | 0.06 | 80 | 1093.1 |
| 20260507020327 | 63 | 85 | 1.0 | 1.0 | 0.00 | 0.06 | 0.06 | 79 | 1093.2 |
| 20260507015825 | 63 | 105 | 1.0 | 1.0 | 0.00 | 0.06 | 0.06 | 78 | 1092.8 |
| 20260507015322 | 64 | 94 | 2.0 | 3.0 | 0.00 | 0.06 | 0.06 | 77 | 1092.8 |
| 20260507014819 | 64 | 83 | 2.0 | 2.0 | 0.00 | 0.06 | 0.06 | 76 | 1092.8 |
| 20260507014316 | 64 | 96 | 0.0 | 1.0 | 0.00 | 0.06 | 0.06 | 76 | 1092.7 |
| 20260507013812 | 64 | 117 | 2.0 | 2.0 | 0.00 | 0.06 | 0.06 | 74 | 1092.8 |
| 20260507013309 | 65 | 115 | 2.0 | 3.0 | 0.00 | 0.06 | 0.06 | 73 | 1093.0 |
| 20260507012807 | 65 | 60 | 3.0 | 4.0 | 0.00 | 0.06 | 0.06 | 73 | 1092.9 |
| 20260507012305 | 65 | 100 | 1.0 | 2.0 | 0.00 | 0.06 | 0.06 | 73 | 1092.6 |
| 20260507011800 | 65 | 54 | 3.0 | 4.0 | 0.00 | 0.06 | 0.06 | 72 | 1092.5 |
| 20260507011256 | 66 | 62 | 2.0 | 2.0 | 0.00 | 0.06 | 0.06 | 72 | 1092.6 |
| 20260507010756 | 66 | 113 | 1.0 | 1.0 | 0.00 | 0.06 | 0.06 | 72 | 1092.4 |
| 20260507010252 | 66 | 99 | 1.0 | 2.0 | 0.00 | 0.06 | 0.06 | 70 | 1092.6 |
| 20260507005750 | 67 | 121 | 4.0 | 4.0 | 0.00 | 0.06 | 0.06 | 70 | 1091.9 |
| 20260507005246 | 67 | 94 | 2.0 | 2.0 | 0.00 | 0.06 | 0.06 | 69 | 1092.3 |
| 20260507004742 | 67 | 109 | 3.0 | 4.0 | 0.00 | 0.06 | 0.06 | 69 | 1092.3 |
| 20260507004240 | 68 | 83 | 1.0 | 2.0 | 0.00 | 0.06 | 0.06 | 69 | 1091.8 |
| 20260507003736 | 68 | 107 | 3.0 | 3.0 | 0.00 | 0.06 | 0.06 | 68 | 1092.4 |
| 20260507003232 | 69 | 110 | 2.0 | 3.0 | 0.00 | 0.06 | 0.06 | 65 | 1092.2 |
| 20260507002728 | 69 | 65 | 0.0 | 0.0 | 0.00 | 0.06 | 0.06 | 64 | 1092.4 |
| 20260507002224 | 69 | 85 | 2.0 | 3.0 | 0.00 | 0.06 | 0.06 | 62 | 1092.0 |
| 20260507001721 | 70 | 51 | 1.0 | 2.0 | 0.00 | 0.06 | 0.06 | 62 | 1092.2 |
| 20260507001218 | 70 | 85 | 3.0 | 4.0 | 0.00 | 0.06 | 0.06 | 61 | 1092.2 |
| 20260507000714 | 71 | 46 | 1.0 | 2.0 | 0.00 | 0.06 | 0.06 | 61 | 1091.9 |
| 20260507000212 | 71 | 41 | 3.0 | 3.0 | 0.00 | 0.06 | 0.06 | 61 | 1091.9 |
| 20260506235708 | 71 | 56 | 4.0 | 6.0 | 0.00 | 0.06 | 0.06 | 60 | 1091.9 |
| 20260506235203 | 71 | 59 | 2.0 | 2.0 | 0.00 | 0.06 | 0.06 | 60 | 1091.7 |
| 20260506234700 | 71 | 56 | 6.0 | 7.0 | 0.00 | 0.06 | 0.06 | 59 | 1091.8 |
| 20260506234157 | 71 | 80 | 5.0 | 7.0 | 0.00 | 0.06 | 0.06 | 59 | 1091.6 |
| 20260506233654 | 71 | 37 | 3.0 | 3.0 | 0.00 | 0.06 | 0.06 | 58 | 1091.9 |
| 20260506233151 | 72 | 111 | 2.0 | 3.0 | 0.00 | 0.06 | 0.06 | 58 | 1092.0 |
| 20260506232647 | 72 | 42 | 5.0 | 6.0 | 0.00 | 0.06 | 0.06 | 59 | 1091.8 |
| 20260506232142 | 72 | 26 | 2.0 | 3.0 | 0.00 | 0.06 | 0.06 | 60 | 1091.5 |
| 20260506231640 | 72 | 60 | 3.0 | 4.0 | 0.00 | 0.06 | 0.06 | 58 | 1091.7 |
| 20260506231139 | 72 | 60 | 4.0 | 4.0 | 0.00 | 0.06 | 0.06 | 59 | 1092.0 |
| 20260506230635 | 72 | 65 | 1.0 | 2.0 | 0.00 | 0.06 | 0.06 | 61 | 1091.7 |
| 20260506230132 | 71 | 23 | 1.0 | 1.0 | 0.00 | 0.06 | 0.06 | 61 | 1092.0 |
| 20260506225628 | 72 | 48 | 5.0 | 6.0 | 0.00 | 0.06 | 0.06 | 59 | 1091.9 |
| 20260506225125 | 72 | 38 | 4.0 | 4.0 | 0.00 | 0.06 | 0.06 | 59 | 1092.0 |
| 20260506224622 | 72 | 45 | 4.0 | 4.0 | 0.00 | 0.06 | 0.06 | 60 | 1091.6 |
| 20260506224118 | 73 | 80 | 2.0 | 3.0 | 0.00 | 0.06 | 0.06 | 58 | 1091.8 |
| 20260506223614 | 72 | 49 | 2.0 | 3.0 | 0.00 | 0.06 | 0.06 | 60 | 1091.7 |
| 20260506223110 | 71 | 92 | 2.0 | 2.0 | 0.00 | 0.06 | 0.06 | 60 | 1091.7 |
| 20260506222608 | 72 | 13 | 0.0 | 0.0 | 0.00 | 0.06 | 0.06 | 62 | 1091.6 |
| 20260506222104 | 72 | 35 | 4.0 | 4.0 | 0.00 | 0.06 | 0.06 | 60 | 1091.5 |
| 20260506221602 | 72 | 77 | 2.0 | 3.0 | 0.00 | 0.06 | 0.06 | 62 | 1091.4 |
| 20260506221100 | 71 | 53 | 1.0 | 2.0 | 0.00 | 0.06 | 0.06 | 63 | 1091.7 |
| 20260506220555 | 71 | 35 | 3.0 | 4.0 | 0.00 | 0.06 | 0.06 | 63 | 1091.5 |
| 20260506220051 | 71 | 37 | 4.0 | 4.0 | 0.00 | 0.06 | 0.06 | 65 | 1091.6 |
| 20260506215548 | 71 | 78 | 2.0 | 3.0 | 0.00 | 0.06 | 0.06 | 65 | 1091.9 |
| 20260506215043 | 70 | 44 | 1.0 | 2.0 | 0.00 | 0.06 | 0.06 | 66 | 1091.8 |
| 20260506214541 | 71 | 93 | 3.0 | 3.0 | 0.00 | 0.06 | 0.06 | 65 | 1091.9 |
| 20260506214038 | 70 | 47 | 2.0 | 4.0 | 0.00 | 0.06 | 0.06 | 67 | 1091.7 |
| 20260506213536 | 69 | 65 | 4.0 | 4.0 | 0.00 | 0.06 | 0.06 | 67 | 1091.7 |
| 20260506213033 | 70 | 34 | 4.0 | 4.0 | 0.00 | 0.06 | 0.06 | 67 | 1091.9 |
| 20260506212530 | 71 | 34 | 4.0 | 6.0 | 0.00 | 0.06 | 0.06 | 66 | 1092.0 |
| 20260506212024 | 70 | 75 | 3.0 | 3.0 | 0.00 | 0.06 | 0.06 | 66 | 1091.8 |
| 20260506211521 | 69 | 91 | 2.0 | 2.0 | 0.00 | 0.06 | 0.06 | 68 | 1092.3 |
| 20260506211018 | 69 | 32 | 3.0 | 3.0 | 0.00 | 0.06 | 0.06 | 67 | 1092.5 |
| 20260506210514 | 69 | 92 | 1.0 | 2.0 | 0.00 | 0.06 | 0.06 | 70 | 1092.4 |
| 20260506210011 | 68 | 53 | 6.0 | 9.0 | 0.00 | 0.06 | 0.06 | 69 | 1092.6 |
| 20260506205508 | 67 | 75 | 4.0 | 4.0 | 0.00 | 0.06 | 0.06 | 71 | 1092.5 |
| 20260506205003 | 67 | 53 | 3.0 | 4.0 | 0.00 | 0.06 | 0.06 | 73 | 1092.4 |
| 20260506204502 | 67 | 37 | 5.0 | 6.0 | 0.00 | 0.06 | 0.06 | 72 | 1092.3 |
| 20260506203958 | 66 | 68 | 5.0 | 6.0 | 0.00 | 0.06 | 0.06 | 74 | 1092.4 |
| 20260506203456 | 67 | 23 | 2.0 | 3.0 | 0.00 | 0.06 | 0.06 | 73 | 1092.4 |
| 20260506202953 | 68 | 37 | 2.0 | 3.0 | 0.00 | 0.06 | 0.06 | 73 | 1092.8 |
| 20260506202450 | 65 | 36 | 3.0 | 3.0 | 0.00 | 0.06 | 0.06 | 75 | 1092.6 |
| 20260506201946 | 65 | 94 | 3.0 | 3.0 | 0.00 | 0.06 | 0.06 | 76 | 1092.8 |
| 20260506201444 | 64 | 78 | 1.0 | 1.0 | 0.00 | 0.06 | 0.06 | 78 | 1092.8 |
| 20260506200940 | 64 | 34 | 7.0 | 9.0 | 0.00 | 0.06 | 0.06 | 77 | 1092.8 |
| 20260506200437 | 64 | 80 | 4.0 | 6.0 | 0.00 | 0.06 | 0.06 | 77 | 1092.9 |
| 20260506195933 | 65 | 94 | 1.0 | 1.0 | 0.00 | 0.06 | 0.06 | 75 | 1093.2 |
| 20260506195430 | 63 | 51 | 4.0 | 6.0 | 0.00 | 0.06 | 0.06 | 79 | 1093.2 |
| 20260506194927 | 63 | 23 | 4.0 | 6.0 | 0.00 | 0.06 | 0.06 | 79 | 1093.3 |
| 20260506194424 | 62 | 100 | 3.0 | 4.0 | 0.00 | 0.06 | 0.06 | 81 | 1093.4 |
| 20260506193921 | 62 | 72 | 4.0 | 4.0 | 0.00 | 0.06 | 0.06 | 81 | 1093.4 |
| 20260506193418 | 63 | 37 | 4.0 | 6.0 | 0.00 | 0.06 | 0.06 | 80 | 1093.4 |
| 20260506192914 | 61 | 84 | 3.0 | 4.0 | 0.00 | 0.06 | 0.06 | 82 | 1093.4 |
| 20260506192411 | 61 | 63 | 5.0 | 7.0 | 0.00 | 0.06 | 0.06 | 83 | 1093.6 |
| 20260506191908 | 61 | 19 | 3.0 | 4.0 | 0.00 | 0.06 | 0.06 | 83 | 1093.6 |
| 20260506191404 | 60 | 48 | 2.0 | 2.0 | 0.00 | 0.06 | 0.06 | 84 | 1093.7 |
| 20260506190901 | 60 | 31 | 3.0 | 4.0 | 0.00 | 0.06 | 0.06 | 84 | 1093.6 |
| 20260506190358 | 60 | 46 | 5.0 | 7.0 | 0.00 | 0.06 | 0.06 | 84 | 1093.9 |
| 20260506185855 | 59 | 56 | 5.0 | 8.0 | 0.00 | 0.06 | 0.06 | 85 | 1094.0 |
| 20260506185352 | 59 | 39 | 5.0 | 6.0 | 0.00 | 0.06 | 0.06 | 85 | 1093.9 |
| 20260506184849 | 59 | 12 | 3.0 | 3.0 | 0.00 | 0.06 | 0.06 | 85 | 1094.1 |
| 20260506184346 | 59 | 52 | 5.0 | 7.0 | 0.00 | 0.06 | 0.06 | 84 | 1094.0 |
| 20260506183843 | 59 | 43 | 2.0 | 3.0 | 0.00 | 0.06 | 0.06 | 85 | 1094.1 |
| 20260506183338 | 59 | 32 | 4.0 | 6.0 | 0.00 | 0.06 | 0.06 | 85 | 1094.0 |
| 20260506182836 | 59 | 59 | 3.0 | 4.0 | 0.00 | 0.06 | 0.06 | 85 | 1094.0 |
| 20260506182333 | 59 | 48 | 4.0 | 4.0 | 0.00 | 0.06 | 0.06 | 85 | 1094.2 |
| 20260506181831 | 59 | 38 | 4.0 | 6.0 | 0.00 | 0.06 | 0.06 | 84 | 1094.2 |
| 20260506181329 | 59 | 45 | 3.0 | 4.0 | 0.00 | 0.06 | 0.06 | 86 | 1094.3 |
| 20260506180825 | 58 | 35 | 3.0 | 4.0 | 0.00 | 0.06 | 0.06 | 85 | 1094.1 |
| 20260506180321 | 59 | 54 | 2.0 | 3.0 | 0.00 | 0.06 | 0.06 | 85 | 1094.2 |
| 20260506175817 | 58 | 32 | 5.0 | 7.0 | 0.00 | 0.06 | 0.06 | 85 | 1094.3 |
| 20260506175315 | 58 | 35 | 4.0 | 6.0 | 0.00 | 0.06 | 0.06 | 86 | 1094.4 |
| 20260506174812 | 58 | 34 | 4.0 | 6.0 | 0.00 | 0.06 | 0.06 | 85 | 1094.2 |
| 20260506174309 | 58 | 63 | 7.0 | 9.0 | 0.00 | 0.06 | 0.06 | 86 | 1094.4 |
| 20260506173806 | 57 | 101 | 4.0 | 6.0 | 0.00 | 0.06 | 0.06 | 86 | 1094.6 |
| 20260506173303 | 57 | 29 | 5.0 | 8.0 | 0.00 | 0.06 | 0.06 | 87 | 1094.3 |
| 20260506172800 | 57 | 47 | 9.0 | 10.0 | 0.00 | 0.06 | 0.06 | 87 | 1094.5 |
| 20260506172256 | 57 | 31 | 4.0 | 4.0 | 0.00 | 0.06 | 0.06 | 87 | 1094.5 |
| 20260506171754 | 57 | 44 | 4.0 | 7.0 | 0.00 | 0.06 | 0.06 | 86 | 1094.8 |
| 20260506171251 | 57 | 52 | 4.0 | 6.0 | 0.00 | 0.06 | 0.06 | 87 | 1094.4 |
| 20260506170749 | 56 | 44 | 8.0 | 8.0 | 0.00 | 0.06 | 0.06 | 87 | 1094.4 |
| 20260506170245 | 56 | 32 | 3.0 | 3.0 | 0.00 | 0.06 | 0.06 | 89 | 1094.3 |
| 20260506165744 | 56 | 23 | 5.0 | 6.0 | 0.00 | 0.06 | 0.06 | 89 | 1094.3 |
| 20260506165241 | 56 | 43 | 3.0 | 4.0 | 0.00 | 0.06 | 0.06 | 88 | 1094.0 |
| 20260506164738 | 56 | 28 | 5.0 | 6.0 | 0.00 | 0.06 | 0.06 | 89 | 1094.4 |
| 20260506164234 | 57 | 21 | 4.0 | 4.0 | 0.00 | 0.06 | 0.06 | 89 | 1093.7 |
| 20260506163731 | 56 | 32 | 4.0 | 6.0 | 0.00 | 0.06 | 0.06 | 90 | 1093.6 |
| 20260506163226 | 56 | 6 | 3.0 | 6.0 | 0.00 | 0.06 | 0.06 | 90 | 1093.6 |
| 20260506162722 | 56 | 61 | 5.0 | 8.0 | 0.00 | 0.06 | 0.06 | 90 | 1094.2 |
| 20260506162220 | 56 | 43 | 5.0 | 7.0 | 0.00 | 0.06 | 0.06 | 90 | 1093.9 |
| 20260506161717 | 55 | 53 | 7.0 | 9.0 | 0.00 | 0.06 | 0.06 | 90 | 1093.9 |
| 20260506161215 | 55 | 58 | 3.0 | 4.0 | 0.00 | 0.06 | 0.06 | 91 | 1093.7 |
| 20260506160712 | 55 | 31 | 4.0 | 4.0 | 0.00 | 0.06 | 0.06 | 91 | 1094.0 |
| 20260506160208 | 55 | 21 | 5.0 | 7.0 | 0.00 | 0.06 | 0.06 | 91 | 1093.6 |
| 20260506155707 | 55 | 43 | 3.0 | 4.0 | 0.00 | 0.06 | 0.06 | 91 | 1093.4 |
| 20260506155204 | 55 | 35 | 5.0 | 7.0 | 0.00 | 0.06 | 0.06 | 92 | 1093.5 |
| 20260506153305 | 53 | 39 | 4.0 | 7.0 | 0.00 | 0.06 | 0.06 | 94 | 1093.5 |
| 20260506152802 | 53 | 37 | 5.0 | 6.0 | 0.00 | 0.06 | 0.06 | 94 | 1093.3 |
| 20260506152300 | 53 | 31 | 4.0 | 7.0 | 0.00 | 0.06 | 0.06 | 95 | 1093.2 |
| 20260506151759 | 53 | 45 | 2.0 | 2.0 | 0.00 | 0.06 | 0.06 | 95 | 1093.6 |
| 20260506151255 | 53 | 27 | 6.0 | 7.0 | 0.00 | 0.06 | 0.06 | 95 | 1093.3 |
| 20260506150751 | 53 | 59 | 7.0 | 10.0 | 0.00 | 0.06 | 0.06 | 95 | 1093.4 |
| 20260506150249 | 52 | 31 | 5.0 | 7.0 | 0.00 | 0.06 | 0.06 | 96 | 1093.1 |
| 20260506145745 | 52 | 42 | 4.0 | 6.0 | 0.00 | 0.06 | 0.06 | 96 | 1093.1 |
| 20260506145242 | 52 | 44 | 4.0 | 4.0 | 0.00 | 0.06 | 0.06 | 96 | 1093.1 |
| 20260506144739 | 52 | 55 | 3.0 | 4.0 | 0.00 | 0.06 | 0.06 | 96 | 1093.1 |
| 20260506144236 | 52 | 36 | 3.0 | 4.0 | 0.00 | 0.06 | 0.06 | 96 | 1092.8 |
| 20260506143734 | 53 | 34 | 5.0 | 7.0 | 0.00 | 0.06 | 0.06 | 96 | 1092.7 |
| 20260506143231 | 52 | 28 | 6.0 | 7.0 | 0.00 | 0.06 | 0.06 | 96 | 1092.7 |
| 20260506142730 | 52 | 24 | 6.0 | 9.0 | 0.00 | 0.06 | 0.06 | 96 | 1093.0 |
| 20260506142227 | 52 | 53 | 7.0 | 10.0 | 0.00 | 0.06 | 0.06 | 97 | 1092.5 |
| 20260506141725 | 52 | 38 | 4.0 | 7.0 | 0.00 | 0.06 | 0.06 | 97 | 1092.2 |
| 20260506141223 | 52 | 51 | 4.0 | 6.0 | 0.00 | 0.06 | 0.06 | 97 | 1092.2 |
| 20260506140721 | 52 | 30 | 3.0 | 3.0 | 0.00 | 0.06 | 0.06 | 97 | 1092.6 |
| 20260506140217 | 53 | 34 | 3.0 | 3.0 | 0.00 | 0.06 | 0.06 | 98 | 1092.5 |
| 20260506135714 | 53 | 38 | 3.0 | 4.0 | 0.00 | 0.06 | 0.06 | 98 | 1091.9 |
| 20260506135210 | 53 | 19 | 2.0 | 2.0 | 0.00 | 0.06 | 0.06 | 98 | 1091.7 |
| 20260506134707 | 53 | 42 | 4.0 | 4.0 | 0.00 | 0.06 | 0.06 | 98 | 1091.6 |
| 20260506134203 | 53 | 50 | 10.0 | 10.0 | 0.00 | 0.06 | 0.06 | 98 | 1092.0 |
| 20260506133700 | 52 | 60 | 2.0 | 3.0 | 0.00 | 0.06 | 0.06 | 98 | 1092.0 |
| 20260506133157 | 52 | 17 | 4.0 | 4.0 | 0.00 | 0.06 | 0.06 | 98 | 1091.7 |
| 20260506132655 | 52 | 332 | 0.0 | 1.0 | 0.00 | 0.06 | 0.06 | 97 | 1092.6 |
| 20260506132151 | 52 | 129 | 5.0 | 7.0 | 0.00 | 0.06 | 0.06 | 97 | 1091.7 |
| 20260506131649 | 52 | 174 | 1.0 | 2.0 | 0.00 | 0.06 | 0.06 | 97 | 1091.8 |
| 20260506131145 | 52 | 156 | 4.0 | 7.0 | 0.00 | 0.06 | 0.06 | 97 | 1091.3 |
| 20260506130642 | 53 | 337 | 2.0 | 2.0 | 0.00 | 0.06 | 0.06 | 96 | 1091.0 |
| 20260506130139 | 53 | 27 | 5.0 | 8.0 | 0.00 | 0.06 | 0.06 | 96 | 1090.8 |
| 20260506125637 | 53 | 340 | 2.0 | 2.0 | 0.00 | 0.06 | 0.06 | 96 | 1091.3 |
| 20260506125135 | 53 | 0 | 2.0 | 2.0 | 0.00 | 0.06 | 0.06 | 95 | 1091.2 |
| 20260506124633 | 53 | 91 | 4.0 | 9.0 | 0.24 | 0.06 | 0.06 | 94 | 1089.8 |
| 20260506124130 | 53 | 56 | 5.0 | 10.0 | 0.35 | 0.06 | 0.06 | 93 | 1090.3 |
| 20260506123627 | 54 | 58 | 2.0 | 3.0 | 0.24 | 0.04 | 0.04 | 91 | 1091.2 |
| 20260506123126 | 55 | 325 | 4.0 | 4.0 | 0.00 | 0.00 | 0.00 | 87 | 1093.2 |
| 20260506122622 | 55 | 36 | 3.0 | 4.0 | 0.00 | 0.00 | 0.00 | 86 | 1091.9 |
| 20260506122120 | 55 | 45 | 5.0 | 6.0 | 0.00 | 0.00 | 0.00 | 86 | 1091.5 |
| 20260506121618 | 55 | 23 | 2.0 | 3.0 | 0.00 | 0.00 | 0.00 | 87 | 1091.5 |
| 20260506121114 | 55 | 68 | 4.0 | 7.0 | 0.00 | 0.00 | 0.00 | 86 | 1091.0 |
| 20260506120612 | 55 | 48 | 3.0 | 3.0 | 0.00 | 0.00 | 0.00 | 87 | 1090.2 |
| 20260506120109 | 55 | 59 | 4.0 | 4.0 | 0.00 | 0.00 | 0.00 | 87 | 1089.7 |
| 20260506115608 | 55 | 35 | 9.0 | 13.0 | 0.00 | 0.00 | 0.00 | 86 | 1090.6 |
| 20260506115105 | 55 | 25 | 4.0 | 7.0 | 0.00 | 0.00 | 0.00 | 86 | 1090.9 |
| 20260506114602 | 55 | 36 | 3.0 | 4.0 | 0.00 | 0.00 | 0.00 | 86 | 1091.5 |
| 20260506114100 | 55 | 15 | 3.0 | 3.0 | 0.00 | 0.00 | 0.00 | 86 | 1090.9 |
| 20260506113558 | 55 | 25 | 2.0 | 2.0 | 0.00 | 0.00 | 0.00 | 86 | 1091.0 |
| 20260506113055 | 55 | 50 | 4.0 | 6.0 | 0.00 | 0.00 | 0.00 | 86 | 1090.7 |
| 20260506112551 | 55 | 41 | 3.0 | 3.0 | 0.00 | 0.00 | 0.00 | 86 | 1090.2 |
| 20260506112049 | 55 | 33 | 3.0 | 7.0 | 0.00 | 0.00 | 0.00 | 86 | 1090.1 |
| 20260506111547 | 56 | 54 | 1.0 | 1.0 | 0.00 | 0.00 | 0.00 | 86 | 1090.6 |
| 20260506111044 | 56 | 40 | 2.0 | 2.0 | 0.00 | 0.00 | 0.00 | 86 | 1090.2 |
| 20260506110541 | 56 | 46 | 5.0 | 7.0 | 0.00 | 0.00 | 0.00 | 85 | 1090.0 |
| 20260506110039 | 56 | 47 | 1.0 | 2.0 | 0.00 | 0.00 | 0.00 | 85 | 1090.2 |
| 20260506105534 | 56 | 40 | 4.0 | 4.0 | 0.00 | 0.00 | 0.00 | 85 | 1090.0 |